Total_Precipitation_Accumulation
3.32 3.43 3.18 3.09 3.18 3.22 3.45 3.78 3.89 3.56 3.35 3.09 2.60 2.32 2.36 2.62 2.99 2.64 2.47 2.38 2.17 2.06 1.94 1.87 1.89 1.95 2.06 2.22 2.42 2.63 2.75 2.83 2.90 2.87 2.93 3.12 3.29 3.48
3.15 3.18 3.11 3.01 3.12 3.06 3.13 3.38 3.67 3.73 3.44 3.05 2.73 2.36 2.46 2.38 2.65 2.57 2.57 2.52 2.21 1.99 1.80 1.71 1.72 1.77 1.87 1.94 1.99 2.12 2.16 2.20 2.31 2.41 2.42 2.45 2.49 2.65
2.68 2.72 2.77 3.01 3.11 3.02 3.08 3.14 3.41 3.73 3.61 3.30 2.98 2.76 2.68 2.64 2.49 2.44 2.34 2.22 2.02 1.88 1.66 1.57 1.58 1.63 1.69 1.75 1.85 1.97 2.06 2.10 2.10 2.15 2.23 2.29 2.33 2.39
2.53 2.68 2.56 2.76 2.92 2.85 2.98 3.00 3.17 3.55 3.69 3.76 3.63 3.32 3.08 2.89 2.82 2.60 2.16 1.97 2.02 2.00 1.80 1.63 1.55 1.53 1.54 1.58 1.69 1.85 1.96 2.02 2.02 2.00 2.03 2.08 2.19 2.33
2.50 2.52 2.38 2.54 2.62 2.70 2.77 2.82 3.02 3.26 3.59 3.52 3.50 3.43 3.29 3.03 3.11 2.78 2.45 2.38 1.95 1.93 1.89 1.72 1.62 1.55 1.51 1.53 1.61 1.69 1.77 1.87 1.87 1.95 2.04 2.09 2.14 2.20
2.34 2.27 2.15 2.18 2.28 2.50 2.52 2.66 2.89 3.12 3.35 3.30 3.33 3.44 3.53 3.52 3.52 3.23 3.01 2.77 2.37 1.93 1.98 1.83 1.77 1.64 1.50 1.43 1.46 1.54 1.69 1.82 1.84 1.86 1.94 2.01 2.08 2.16
2.15 1.99 1.81 1.88 2.01 2.09 1.99 2.37 2.74 2.89 2.97 3.04 3.12 3.31 3.47 3.71 3.52 3.38 3.27 3.22 2.91 2.43 2.37 2.02 1.90 1.70 1.53 1.46 1.46 1.45 1.50 1.64 1.71 1.77 1.85 1.91 2.01 2.13
2.04 2.02 1.87 1.78 1.73 1.76 1.71 1.89 2.25 2.42 2.64 2.93 3.05 3.24 3.33 3.35 3.53 3.51 3.48 3.33 3.04 2.71 2.69 2.60 2.46 2.32 2.03 1.68 1.59 1.46 1.37 1.46 1.62 1.71 1.81 1.90 1.97 2.07
2.02 2.04 1.77 1.62 1.70 1.56 1.64 1.70 1.75 1.86 2.04 2.44 2.72 2.82 2.91 2.97 3.26 3.34 3.33 3.19 3.10 2.95 2.99 2.96 2.85 2.60 2.15 1.97 1.92 1.65 1.51 1.46 1.52 1.60 1.64 1.76 1.88 1.98
1.72 1.76 1.81 1.78 1.69 1.74 1.71 1.66 1.56 1.60 1.71 1.73 1.90 2.15 2.44 2.70 2.89 3.08 3.37 3.31 3.23 3.14 3.08 3.14 2.99 2.84 2.44 2.16 2.07 1.82 1.71 1.62 1.62 1.63 1.63 1.66 1.71 1.79
1.71 1.73 1.83 1.88 1.92 1.82 1.74 1.74 1.71 1.70 1.66 1.65 1.58 1.68 1.87 2.02 2.21 2.49 2.85 3.19 3.37 3.34 3.13 3.21 3.14 3.16 3.08 2.67 2.27 2.10 1.85 1.72 1.68 1.66 1.64 1.64 1.69 1.78
2.01 1.98 1.89 1.76 1.78 1.70 1.66 1.72 1.67 1.66 1.58 1.54 1.47 1.45 1.45 1.61 1.81 2.03 2.33 2.72 3.00 3.15 3.08 3.21 3.36 3.71 3.86 3.30 2.69 2.29 2.06 2.00 1.87 1.72 1.67 1.71 1.83 1.77
1.93 1.87 1.76 1.61 1.47 1.42 1.38 1.48 1.57 1.53 1.54 1.57 1.60 1.59 1.61 1.65 1.72 1.82 2.15 2.43 2.57 2.49 2.51 2.92 3.14 3.43 3.75 3.64 3.36 2.98 2.65 2.40 2.17 1.98 1.91 1.95 2.02 1.95
1.98 1.94 1.79 1.62 1.42 1.32 1.17 1.23 1.32 1.26 1.33 1.52 1.59 1.60 1.62 1.64 1.73 1.86 2.08 2.30 2.48 2.47 2.49 2.74 2.96 3.15 3.24 3.17 3.14 3.17 3.14 2.99 2.74 2.53 2.28 2.32 2.26 2.31
1.79 1.97 1.84 1.55 1.32 1.22 1.18 1.11 1.02 1.02 1.19 1.32 1.40 1.49 1.55 1.64 1.78 1.96 2.19 2.37 2.42 2.37 2.29 2.47 2.75 3.00 3.12 2.96 2.81 2.78 2.85 2.86 2.78 2.75 2.71 2.60 2.46 2.41
1.64 1.65 1.61 1.46 1.27 1.26 1.29 1.16 1.05 1.12 1.20 1.24 1.33 1.45 1.53 1.61 1.74 1.84 2.04 2.27 2.41 2.29 2.26 2.37 2.58 2.85 2.89 2.83 2.74 2.60 2.62 2.72 2.77 2.87 2.93 2.83 2.68 2.58
1.62 1.62 1.56 1.55 1.41 1.35 1.41 1.42 1.40 1.44 1.40 1.33 1.37 1.40 1.45 1.51 1.57 1.70 1.87 2.01 2.13 2.12 2.12 2.22 2.37 2.57 2.61 2.64 2.64 2.46 2.43 2.42 2.57 2.89 3.14 3.06 2.76 2.59
1.59 1.63 1.73 1.71 1.66 1.65 1.65 1.61 1.59 1.55 1.54 1.57 1.55 1.50 1.51 1.53 1.52 1.59 1.72 1.82 1.86 1.92 1.99 2.04 2.19 2.38 2.42 2.35 2.18 2.11 2.10 2.10 2.17 2.44 2.73 2.89 2.74 2.54
1.62 1.71 1.86 1.87 1.84 1.82 1.73 1.67 1.71 1.66 1.65 1.67 1.66 1.66 1.69 1.69 1.67 1.69 1.79 1.90 1.89 1.86 1.89 2.05 2.14 2.25 2.24 2.12 1.94 1.73 1.87 2.00 2.09 2.13 2.18 2.29 2.33 2.23
1.58 1.78 1.96 1.96 1.96 1.93 1.84 1.75 1.76 1.74 1.71 1.69 1.69 1.67 1.70 1.78 1.80 1.78 1.80 1.88 1.89 1.86 1.88 1.93 2.00 2.04 2.11 2.10 2.00 1.81 1.63 1.80 1.94 1.97 1.94 1.95 1.89 1.94
1.72 1.83 1.89 1.92 1.92 1.86 1.78 1.74 1.77 1.74 1.70 1.73 1.73 1.73 1.74 1.83 1.84 1.81 1.81 1.90 1.84 1.76 1.75 1.77 1.82 1.90 2.01 2.15 2.05 1.79 1.65 1.63 1.74 1.80 1.86 1.96 1.90 1.82
1.69 1.70 1.70 1.71 1.74 1.77 1.79 1.81 1.87 1.85 1.82 1.79 1.73 1.71 1.74 1.80 1.83 1.86 1.87 1.87 1.82 1.75 1.68 1.66 1.69 1.77 1.88 2.02 1.98 1.84 1.75 1.71 1.71 1.73 1.75 1.79 1.78 1.70
1.64 1.65 1.64 1.62 1.59 1.67 1.74 1.77 1.82 1.85 1.80 1.75 1.76 1.79 1.77 1.82 1.82 1.80 1.76 1.71 1.70 1.70 1.75 1.75 1.75 1.78 1.82 1.91 2.00 1.97 1.84 1.84 1.86 1.79 1.58 1.51 1.44 1.33